[[{"header":{"parameterUnit":"m.s-1","parameterCategory":1,"la1":30.2991,"la2":30.254,"lo1":-89.0895,"lo2":-89.0444,"dy":0.0017,"dx":0.0017,"nx":28,"ny":28,"refTime":"2025-07-17T03:00:00:Z","depth":0,"parameterNumber":2,"parameterNumberName":"U-component_of_WINDS"},"data":[0,0,0,0,0,0,0,0,0,0,0,0,0,0,0,0,0,0,0,0,0,0,0,0,0,0,0,0,0,0,0,0,0,0,0,0,0,0,0,0,0,0,0,0,0,0,0,0,0,0,0,0,0,0,0,0,0,0,0.3643,0.364,0,0.3416,0.3414,0.3411,0.3333,0.3334,0.3335,0.3336,0.3093,0.3086,0.3078,0,0,0,0,0,0,0,0,0,0,0,0,0,0.3996,0.399,0.3643,0.364,0.3637,0.3417,0.3414,0.3411,0.3333,0.3334,0.3335,0.3337,0.3095,0.3087,0.3078,0,0,0,0,0,0,0,0,0,0,0,0,0,0.3813,0.3988,0.3643,0.3572,0.3564,0.3417,0.3414,0.341,0.3333,0.3334,0.3336,0.3337,0.3098,0.3087,0.3077,0.2981,0,0,0.3043,0.3038,0,0,0,0,0,0,0,0,0.3824,0.38,0.3586,0.3577,0.3567,0.3405,0.3449,0.3265,0.3333,0.342,0.3336,0.3338,0.3195,0.3176,0.313,0.2969,0.2959,0.3042,0.3035,0.303,0.3027,0,0,0,0,0,0,0,0.3837,0.381,0.3553,0.3582,0.3571,0.3548,0.3523,0.3414,0.3302,0.3413,0.3407,0.3381,0.319,0.3141,0.3124,0.2955,0.3042,0.3032,0.3026,0.3021,0.27,0.2698,0,0,0,0,0,0,0.3863,0.3821,0.356,0.3546,0.3702,0.354,0.3513,0.3455,0.3303,0.3282,0.3381,0.3379,0.3159,0.3137,0.3115,0.2989,0.3031,0.302,0.3014,0.2702,0.27,0.2698,0,0,0,0,0,0,0.3871,0.384,0.3569,0.3682,0.3645,0.3533,0.3468,0.345,0.3401,0.3279,0.3257,0.3352,0.3159,0.313,0.3015,0.298,0.3015,0.3005,0.2704,0.2702,0.2699,0.274,0,0,0,0,0,0,0.3881,0.3844,0.3809,0.3682,0.364,0.3476,0.3467,0.3445,0.3384,0.3379,0.3246,0.3225,0.3158,0.3031,0.3004,0.2965,0.2997,0.2707,0.2703,0.27,0.2741,0.2739,0.2737,0,0,0,0,0,0.3894,0.3828,0.3808,0.3777,0.3595,0.3475,0.345,0.3377,0.3381,0.3343,0.3264,0.323,0.299,0.302,0.2988,0.2946,0.2709,0.2704,0.27,0.2742,0.2739,0.2737,0,0,0,0,0,0,0.395,0.381,0.3786,0.3677,0.3589,0.3462,0.3412,0.3377,0.3283,0.3282,0.3192,0.3163,0.3053,0.2988,0.3025,0.2843,0.2847,0.2836,0.2889,0.2886,0.2884,0.29,0.2988,0,0,0,0,0,0.3951,0.3869,0.3749,0.3664,0.3622,0.3525,0.347,0.3422,0.3325,0.3286,0.3199,0.3103,0.3005,0.2942,0.2846,0.2733,0.27,0.2688,0.2686,0.2685,0.2675,0.2605,0.2597,0.2684,0.2684,0.2684,0,0,0.3949,0.3862,0.3815,0.3673,0.3599,0.3512,0.3494,0.3403,0.3336,0.3271,0.3156,0.3089,0.2976,0.286,0.2804,0.2802,0.2644,0.2679,0.2679,0.2669,0.26,0.2592,0.2585,0.2681,0.2681,0.2682,0,0,0.3901,0.3829,0.3749,0.3676,0.3566,0.3502,0.3483,0.3361,0.3314,0.3199,0.3148,0.3065,0.29,0.2821,0.2759,0.2681,0.2643,0.2652,0.2639,0.2572,0.2565,0.2559,0.2526,0.2516,0.2643,0.2643,0.2643,0,0.3911,0.3782,0.3712,0.3623,0.356,0.3502,0.3418,0.3349,0.3211,0.3167,0.3168,0.2959,0.2879,0.2741,0.2723,0.2676,0.2647,0.2664,0.2573,0.2566,0.2558,0.2526,0.2515,0.2645,0.2645,0.2644,0.2644,0,0.3798,0.3709,0.3658,0.3529,0.3461,0.3375,0.3288,0.3227,0.3185,0.3119,0.3,0.2903,0.2784,0.2749,0.2706,0.2604,0.2606,0.2592,0.2592,0.2553,0.2521,0.2508,0.2647,0.2646,0.2646,0.2646,0,0,0.3776,0.3612,0.3593,0.3533,0.3407,0.3334,0.3245,0.3133,0.3079,0.2987,0.2905,0.2767,0.2753,0.2683,0.263,0.2573,0.2511,0.2564,0.256,0.2554,0.2388,0.2396,0.2383,0.2488,0.2485,0.2483,0.2395,0,0.3708,0.3549,0.3483,0.3352,0.3266,0.321,0.313,0.3042,0.2979,0.2893,0.2822,0.2724,0.2715,0.2671,0.2612,0.2532,0.2476,0.2538,0.2405,0.2402,0.2431,0.2367,0.2376,0.2298,0.2383,0.2381,0.2379,0,0.3607,0.3517,0.3379,0.3261,0.3222,0.3153,0.3043,0.2965,0.2862,0.2819,0.2742,0.2692,0.2591,0.2602,0.2458,0.2501,0.2443,0.2396,0.2391,0.2371,0.2385,0.2341,0.2271,0.2258,0.236,0.2361,0.2363,0,0.3599,0.3443,0.3339,0.329,0.3152,0.3104,0.3043,0.2942,0.2878,0.2781,0.2738,0.263,0.2569,0.2484,0.2405,0.2422,0.2267,0.2272,0.2224,0.2225,0.2189,0.2192,0.2104,0.2161,0.2161,0.2162,0.2162,0,0.3528,0.3444,0.3334,0.3269,0.3173,0.3097,0.3001,0.2936,0.2847,0.2765,0.271,0.2633,0.2536,0.2446,0.2384,0.2271,0.2245,0.2204,0.2187,0.2206,0.221,0.2163,0.2164,0.2158,0.2159,0.216,0.216,0,0.3501,0.3425,0.3307,0.3187,0.3154,0.3088,0.2982,0.2915,0.285,0.2747,0.2719,0.2615,0.2506,0.242,0.2277,0.2235,0.2114,0.2099,0.215,0.214,0.2095,0.2098,0.1969,0.1946,0.2024,0.2024,0.2023,0,0.3458,0.3392,0.3266,0.3209,0.315,0.306,0.2995,0.2917,0.285,0.2728,0.2674,0.2563,0.2469,0.2296,0.2205,0.2094,0.2072,0.2035,0.2054,0.2074,0.2065,0.2068,0.2058,0.203,0.203,0.203,0.203,0,0.3388,0.3353,0.3264,0.3161,0.3086,0.3001,0.2913,0.2869,0.2774,0.2702,0.2592,0.2519,0.2374,0.2262,0.2142,0.2074,0.2033,0.2025,0.2007,0.2022,0.2053,0.203,0.2138,0.2027,0.2027,0.2027,0.2027,0.2028,0.3347,0.3286,0.3187,0.3088,0.3016,0.2935,0.2865,0.2793,0.2701,0.258,0.2539,0.2424,0.2319,0.2155,0.2086,0.1992,0.1989,0.1964,0.1957,0.195,0.195,0.2073,0.197,0.197,0.197,0.197,0.197,0,0.327,0.3205,0.3116,0.2996,0.2918,0.2893,0.2795,0.2729,0.263,0.2538,0.2448,0.2319,0.221,0.2111,0.1995,0.1938,0.1916,0.191,0.191,0.1894,0.1962,0.1987,0.1929,0.1929,0.1929,0.193,0.193,0.193,0.3221,0.3114,0.3068,0.2922,0.2855,0.2746,0.2691,0.2614,0.2541,0.2401,0.2311,0.2249,0.2152,0.203,0.1926,0.1899,0.1857,0.1854,0.1822,0.1885,0.189,0.1895,0.1918,0.1847,0.1847,0.1761,0.1761,0.176]},{"header":{"parameterUnit":"m.s-1","parameterCategory":1,"la1":30.2991,"la2":30.254,"lo1":-89.0895,"lo2":-89.0444,"dy":0.0017,"dx":0.0017,"nx":28,"ny":28,"refTime":"2025-07-17T03:00:00:Z","depth":0,"parameterNumber":3,"parameterNumberName":"V-component_of_WINDS"},"data":[0,0,0,0,0,0,0,0,0,0,0,0,0,0,0,0,0,0,0,0,0,0,0,0,0,0,0,0,0,0,0,0,0,0,0,0,0,0,0,0,0,0,0,0,0,0,0,0,0,0,0,0,0,0,0,0,0,0,-3.6071,-3.6073,0,-3.6223,-3.6225,-3.6227,-3.6218,-3.6216,-3.6214,-3.6212,-3.636,-3.6366,-3.6372,0,0,0,0,0,0,0,0,0,0,0,0,0,-3.5767,-3.5773,-3.6071,-3.6073,-3.6075,-3.6223,-3.6225,-3.6227,-3.6219,-3.6216,-3.6213,-3.6211,-3.6358,-3.6365,-3.6372,0,0,0,0,0,0,0,0,0,0,0,0,0,-3.5907,-3.5774,-3.607,-3.6088,-3.6092,-3.6222,-3.6225,-3.6228,-3.6219,-3.6216,-3.6213,-3.6209,-3.6356,-3.6364,-3.6373,-3.6494,0,0,-3.6401,-3.6405,0,0,0,0,0,0,0,0,-3.5899,-3.5918,-3.6084,-3.6087,-3.6091,-3.6199,-3.6172,-3.6317,-3.622,-3.617,-3.6212,-3.6208,-3.6308,-3.6321,-3.6357,-3.6501,-3.6507,-3.6401,-3.6407,-3.6411,-3.6413,0,0,0,0,0,0,0,-3.5889,-3.5911,-3.6131,-3.6086,-3.6091,-3.6087,-3.6103,-3.6199,-3.6255,-3.6174,-3.6174,-3.6193,-3.631,-3.6348,-3.636,-3.6509,-3.6401,-3.6409,-3.6415,-3.6418,-3.6761,-3.6765,0,0,0,0,0,0,-3.5876,-3.5903,-3.6126,-3.6135,-3.5985,-3.6095,-3.6113,-3.6167,-3.6255,-3.6265,-3.6195,-3.6192,-3.6334,-3.6349,-3.6365,-3.6513,-3.6411,-3.6419,-3.6424,-3.6757,-3.6762,-3.6766,0,0,0,0,0,0,-3.587,-3.5896,-3.612,-3.602,-3.6048,-3.6104,-3.6164,-3.6172,-3.621,-3.6271,-3.628,-3.6225,-3.6332,-3.6352,-3.6463,-3.6518,-3.6423,-3.6431,-3.6753,-3.6759,-3.6764,-3.6809,0,0,0,0,0,0,-3.5861,-3.5894,-3.5942,-3.6021,-3.6053,-3.6217,-3.6168,-3.6177,-3.6227,-3.6223,-3.63,-3.631,-3.6331,-3.6449,-3.6472,-3.6528,-3.6438,-3.6748,-3.6756,-3.6762,-3.6803,-3.6815,-3.6826,0,0,0,0,0,-3.585,-3.5946,-3.5944,-3.5971,-3.6114,-3.622,-3.6238,-3.6263,-3.6231,-3.6279,-3.6318,-3.6307,-3.6508,-3.6461,-3.6486,-3.6546,-3.6745,-3.6753,-3.6762,-3.6797,-3.6813,-3.6826,0,0,0,0,0,0,-3.5869,-3.5957,-3.5956,-3.608,-3.6143,-3.6218,-3.6279,-3.6278,-3.635,-3.6343,-3.6369,-3.6386,-3.6497,-3.6532,-3.6478,-3.6668,-3.6622,-3.6636,-3.6641,-3.6656,-3.6667,-3.6656,-3.6446,0,0,0,0,0,-3.5889,-3.597,-3.6041,-3.6144,-3.6176,-3.6222,-3.6269,-3.6283,-3.6348,-3.6374,-3.6421,-3.6483,-3.656,-3.661,-3.6684,-3.6808,-3.6824,-3.6862,-3.6873,-3.6883,-3.6894,-3.6963,-3.6981,-3.6794,-3.6793,-3.6793,0,0,-3.5928,-3.5986,-3.6035,-3.6149,-3.62,-3.6281,-3.6244,-3.6332,-3.6392,-3.6386,-3.6495,-3.6531,-3.6601,-3.672,-3.6774,-3.6752,-3.695,-3.6893,-3.69,-3.6907,-3.6973,-3.6991,-3.7007,-3.6799,-3.6798,-3.6797,0,0,-3.6042,-3.6094,-3.6186,-3.6239,-3.6317,-3.6347,-3.6369,-3.6446,-3.6471,-3.658,-3.6578,-3.6649,-3.6781,-3.6832,-3.6875,-3.7011,-3.7004,-3.7034,-3.7094,-3.7161,-3.7176,-3.7189,-3.7238,-3.7255,-3.7045,-3.7045,-3.7045,0,-3.608,-3.6205,-3.6233,-3.6323,-3.6373,-3.6375,-3.6468,-3.6516,-3.6613,-3.6647,-3.6622,-3.679,-3.6837,-3.6967,-3.7001,-3.7035,-3.7061,-3.7025,-3.7172,-3.7186,-3.7198,-3.7245,-3.7263,-3.7048,-3.7048,-3.7047,-3.7047,0,-3.6249,-3.6336,-3.6401,-3.6498,-3.6555,-3.6646,-3.6686,-3.674,-3.675,-3.6783,-3.6894,-3.6952,-3.7038,-3.707,-3.7078,-3.7202,-3.7187,-3.7167,-3.7121,-3.7219,-3.7263,-3.7281,-3.7053,-3.7052,-3.7051,-3.705,0,0,-3.6377,-3.6491,-3.6514,-3.6559,-3.6646,-3.6713,-3.6803,-3.6891,-3.6937,-3.7004,-3.708,-3.7193,-3.7177,-3.7225,-3.724,-3.7299,-3.7403,-3.7272,-3.7274,-3.7294,-3.7543,-3.7557,-3.7577,-3.7399,-3.7403,-3.7406,-3.7537,0,-3.65,-3.6663,-3.6692,-3.6834,-3.6915,-3.6919,-3.6997,-3.7058,-3.7092,-3.7163,-3.7199,-3.7279,-3.7251,-3.728,-3.7339,-3.7378,-3.7453,-3.7369,-3.7469,-3.7472,-3.7451,-3.7601,-3.7616,-3.7737,-3.7554,-3.7557,-3.7559,0,-3.6665,-3.674,-3.6891,-3.6969,-3.7004,-3.7075,-3.7158,-3.7227,-3.7296,-3.7316,-3.7372,-3.7381,-3.7473,-3.7424,-3.7552,-3.7494,-3.7536,-3.7562,-3.7567,-3.7577,-3.7521,-3.7614,-3.7776,-3.7794,-3.7587,-3.7585,-3.7583,0,-3.6744,-3.6882,-3.6991,-3.7029,-3.7123,-3.7173,-3.7213,-3.728,-3.7331,-3.7403,-3.7437,-3.7517,-3.7561,-3.7623,-3.7652,-3.7614,-3.7778,-3.7731,-3.7796,-3.7796,-3.783,-3.7827,-3.8,-3.7857,-3.7857,-3.7857,-3.7856,0,-3.6878,-3.697,-3.7028,-3.7095,-3.7198,-3.723,-3.7331,-3.737,-3.7429,-3.7503,-3.751,-3.7578,-3.7613,-3.7686,-3.7709,-3.7811,-3.7831,-3.7849,-3.7854,-3.7848,-3.7846,-3.7876,-3.7868,-3.7862,-3.7861,-3.786,-3.7859,0,-3.6983,-3.7026,-3.7145,-3.7225,-3.7247,-3.732,-3.7388,-3.7452,-3.7486,-3.7579,-3.7602,-3.7655,-3.7741,-3.7777,-3.7882,-3.7898,-3.8015,-3.8014,-3.7993,-3.7995,-3.8058,-3.8051,-3.8256,-3.8285,-3.8123,-3.8124,-3.8125,0,-3.7065,-3.7137,-3.7226,-3.7278,-3.7321,-3.7403,-3.7457,-3.749,-3.7545,-3.7631,-3.7685,-3.7772,-3.7844,-3.7981,-3.8028,-3.8108,-3.8109,-3.8175,-3.812,-3.8113,-3.811,-3.8105,-3.8113,-3.8184,-3.8186,-3.8187,-3.8188,0,-3.7208,-3.7226,-3.7305,-3.7391,-3.7456,-3.7525,-3.7592,-3.7633,-3.7677,-3.7738,-3.7828,-3.7884,-3.7994,-3.808,-3.8164,-3.8203,-3.8203,-3.8206,-3.8225,-3.822,-3.8205,-3.8214,-3.802,-3.82,-3.8199,-3.8198,-3.8198,-3.8197,-3.7304,-3.7369,-3.7443,-3.753,-3.7585,-3.7648,-3.7713,-3.7757,-3.7834,-3.7928,-3.7942,-3.8039,-3.8107,-3.822,-3.8263,-3.8338,-3.8321,-3.8349,-3.8356,-3.8362,-3.8367,-3.8194,-3.8353,-3.8353,-3.8353,-3.8352,-3.8352,0,-3.7447,-3.7496,-3.7576,-3.7672,-3.7741,-3.7738,-3.7812,-3.7869,-3.7955,-3.802,-3.8092,-3.8196,-3.828,-3.8334,-3.8419,-3.8468,-3.847,-3.8489,-3.8486,-3.8495,-3.8377,-3.8352,-3.8487,-3.8486,-3.8486,-3.8486,-3.8486,-3.8486,-3.753,-3.7639,-3.7667,-3.7803,-3.785,-3.7948,-3.7991,-3.8049,-3.8101,-3.8218,-3.829,-3.8326,-3.8386,-3.8475,-3.8552,-3.8566,-3.8596,-3.8617,-3.8629,-3.8517,-3.8503,-3.849,-3.8467,-3.8623,-3.8623,-3.8741,-3.8742,-3.8743]}]]